OneWeb SL0436

operational
NORAD ID: 51633 Int'l Des: 2022-012 Owner: ONEWEBN Country: UK Constellation: oneweb
LEOCIRCULARPOLARONEWEB_TYPE

OneWeb SL0436について

説明を読み込み中...

リアルタイム位置

3D地球を読み込み中...

次回通過

高度履歴

Altitude vs Time

uPlot chart will show altitude changes over time

軌道要素

1 51633U 22012M 25354.15473571 .00000073 00000-0 15427-3 0 9999
2 51633 87.9114 41.4328 0001783 90.9710 269.1626 13.17648227190101
Epoch: Dec 20, 2025 • Age: 18 hours

現在のステータス

高度 1197.0 km
速度 7.26 km/s
衛星直下点 31.49°N, 18.64°W
打ち上げ日 Feb 10, 2022
運用期間 3.8 years
タイプ internet

技術仕様

分類 Payload
質量 148.00 kg
乾燥質量 140.00 kg
総質量 148.00 kg
長さ 1.30 m
直径 1.00 m
スパン 5.00 m
形状 Trapezoid+2 pan
製造者 ONEWUS
バスタイプ ARROW
フェーズステータス In Orbit
所有者/国 ONEWEBN/UK

大規模コンステレーション

Loading constellations...